Powrót do katalogu

ASTROCAST-0403

AktywnyŁącznośćSSO
NORAD 55111·PAYLOAD·🇨🇭 Switzerland

Wystrzelony Jan 3, 2023 z Cape Canaveral Space Force Station

Loading…

Następne Przeloty (najbliższe 24 godziny)

TLE

ŚwieżeSource: Space-Track

Epoka: Sep 14, 2026, 05:23 UTC

1 55111U 23001DG  26257.22497482  .00020717  00000-0  61263-3 0  9997
2 55111  97.5610 353.3903 0004107  24.5076 335.6361 15.34942467158203

Śledź ASTROCAST-0403 w czasie rzeczywistym z AllMySat

Download on the App Store